SCP
0 0 0 0 0 0 0 0 0 0 0 0 0 0 0 0 0 0 0 0 0 0 0 0 0 0 0 0 0 0 0 0 0 0 0 0 0 0 0 -0 0 0 0 0
0 0 0 0 0 0 0 0 0 0 0 0 0 0 0 -0 0 0 0 0 0 0 0 0 0 0 0 0 0 0 0 0 0 0 0 -0 0 -0 0 -0 0 0 0 0
0 0 0 0 0 0 0 0 0 0 0 0 0 0 0 0 0 0 0 0 0 0 0 0 0 0 0 0 0 0 0 0 0 0 0 0 0 0 -0 -0 0 0 0 0
0 0 0 0 0 0 0 0 0 0 0 0 0 0 0 0 0 0 0 0 0 0 0 0 0 0 0 0 0 0 0 0 0 0 0 0 -0 -0 -0 -0 0 0 0 0
0 0 0 0 0 0 0 0 0 0 0 0 0 0 0 0 0 0 0 0 0 0 0 0 0 0 0 0 0 0 0 0 -0 -0 -0 -0 -0 0 0 -0 0 0 0 0
0 0 0 0 0 0 0 0 0 0 0 0 -0 0 0 0 0 0 0 0 0 0 0 0 0 0 0 0 0 0 0 0 -0 -0 0 0 0 0 0 0 0 0 0 0
0 0 0 0 0 0 0 0 0 0 0 0 0 0 0 0 0 0 0 0 0 0 0 0 0 0 0 0 0 -0 0 -0 -0 -0 -0 0 0 0 0 0 0 0 0 0
0 0 0 0 0 0 0 0 0 0 0 0 0 0 0 0 0 0 0 0 0 0 0 0 0 0 0 0 -0 0 0 -0 -0 -0 -0 0 0 0 0 0 0 0 0 0
0 0 0 0 0 0 0 0 0 0 0 0 0 0 0 0 0 0 0 0 0 0 0 0 0 0 0 -0 -0 0 0 -0 -0 -0 -0 0 0 0 0 0 0 0 0 0
0 0 0 0 0 0 0 0 0 0 0 0 0 0 0 0 0 0 0 0 0 0 0 0 0 0 0 0 0 0 0 -0 0 0 -0 -0 0 0 0 0 0 0 0 0
0 0 0 0 0 0 0 0 0 0 0 0 0 0 0 0 0 0 0 0 0 0 0 0 0 0 0 0 0 0 -0 0 0 0 0 -0 -0 0 0 0 0 0 0 0
0 0 0 0 0 0 0 0 0 0 0 0 0 0 0 0 0 0 0 0 0 0 0 0 0 0 0 0 -0 0 0 -0 -0 -0 -0 -0 0 -0 -0 -0 -0 -0 0 0
0 0 0 0 0 0 0 0 0 0 0 0 0 0 0 0 0 0 0 0 0 0 0 0 0 0 0 0 -0 -0 0 0 0 0 0 0 0 0 0 0 -0 -0 0 0
0 0 0 0 0 0 0 0 0 0 0 0 0 0 0 -0 0 0 0 0 0 0 0 0 0 0 -0 0 0 0 0 0 0 0 0 0 0 0 0 0 0 0 0 0
0 0 0 0 0 0 0 0 0 0 0 0 0 0 0 0 0 0 0 0 0 0 0 0 0 0 -0 0 0 0 0 0 0 0 0 0 0 0 0 0 0 0 0 0
0 0 0 0 0 0 0 0 0 0 0 0 0 0 0 0 0 0 0 0 0 0 0 0 0 -0 0 0 0 0 0 0 0 0 0 0 0 0 0 0 0 0 0 0
0 0 0 0 0 0 0 0 0 0 0 0 0 0 0 0 0 0 0 0 0 0 0 0 -0 0 0 -0 0 0 0 0 0 0 0 0 0 0 0 0 0 0 0 0
0 0 0 0 0 0 0 0 0 0 0 0 0 0 0 0 0 0 0 0 0 -0 -0 -0 -0 0 0 0 0 0 0 0 0 0 0 0 0 0 0 -0 -0 0 0 0
0 0 0 0 0 0 0 0 0 0 0 0 0 0 0 0 0 0 0 0 0 0 -0 -0 -0 -0 0 -0 0 0 0 0 0 0 0 0 0 -0 -0 -0 -0 -0 -0 -0
0 0 0 0 0 0 0 0 0 0 0 0 0 0 0 0 0 0 0 0 0 0 -0 -0 -0 0 0 0 0 0 0 0 -0 -0 -0 -0 0 -0 -0 0 0 0 -0 -0
0 0 0 0 0 -0 -0 -0 0 0 0 0 0 0 0 0 0 0 0 0 0 0 0 -0 0 0 0 0 0 0 -0 -0 -0 -0 -0 0 0 -0 -0 0 0 -0 -0 -0
0 0 0 0 -0 -0 -0 -0 -0 0 0 0 0 0 0 0 0 0 0 0 0 0 0 0 -0 0 0 0 0 0 0 0 0 0 0 0 0 0 0 -0 -0 -0 -0 0
0 0 -0 -0 -0 0 0 0 0 0 0 0 0 0 0 0 0 0 0 0 0 0 0 0 0 0 0 0 0 0 0 0 0 0 0 0 0 0 -0 -0 -0 -0 0 0
0 0 0 0 -0 -0 -0 -0 -0 -0 0 0 0 0 0 0 0 0 0 0 0 0 0 0 0 0 0 0 0 0 0 0 0 0 0 0 0 0 0 0 -0 -0 0 0
0 0 0 -0 -0 -0 0 0 0 0 0 0 0 0 0 0 0 0 0 0 0 0 0 0 0 0 0 0 0 0 0 0 0 0 0 0 0 0 0 0 -0 0 0 0
0 0 0 -0 -0 0 0 0 0 0 0 0 0 0 0 0 0 0 0 0 0 0 0 0 0 0 0 0 0 0 0 0 0 0 0 0 0 0 0 0 -0 0 0 0
0 0 0 0 0 0 0 -0 -0 0 0 0 0 0 0 0 0 0 0 0 0 0 0 0 0 0 0 0 0 0 0 0 0 0 0 0 0 0 0 0 -0 0 0 0
Wind_Speed_500mb
23 20 20 22 25 24 26 28 27 27 30 30 25 29 39 45 50 54 55 60 64 67 70 72 73 68 68 66 77 75 72 70 66 65 57 54 58 49 47 45 46 47 45 50
23 23 26 32 30 32 28 28 25 24 29 18 33 38 42 50 50 53 60 64 67 67 67 69 66 66 71 77 75 72 70 66 62 54 49 51 53 29 23 22 29 36 49 59
22 4 16 24 32 32 19 21 19 21 27 23 27 35 42 45 44 59 57 61 62 61 62 64 62 64 71 70 70 67 63 60 57 49 43 38 26 14 19 26 34 47 56 56
14 10 25 5 7 2 14 21 18 21 20 23 31 36 45 33 52 56 59 57 55 58 63 59 58 67 66 65 65 62 60 57 52 43 34 18 9 9 16 19 27 36 42 46
13 18 25 21 22 13 11 18 16 13 17 30 38 42 27 48 54 53 51 47 48 53 57 57 58 65 63 63 60 57 57 50 48 34 21 3 12 23 33 38 31 32 40 39
15 17 13 6 9 3 9 22 10 12 23 34 43 25 25 54 53 52 47 42 49 53 54 53 66 64 61 57 56 53 51 34 36 21 9 10 27 38 43 42 45 45 49 51
21 16 15 13 2 5 18 8 18 24 30 35 24 34 45 49 51 51 43 44 47 50 51 51 61 63 56 52 53 46 33 26 23 16 15 19 31 41 47 52 55 59 64 65
19 19 18 6 9 17 17 23 28 33 32 31 32 37 42 47 49 49 44 47 49 50 49 53 61 59 50 47 43 33 20 18 18 20 24 28 38 50 57 63 70 75 78 76
9 4 10 7 7 13 13 20 24 26 26 27 30 34 40 44 48 45 42 44 46 47 46 54 60 49 43 42 34 23 20 20 28 31 41 47 55 67 79 83 90 94 96 91
8 12 10 6 15 10 10 16 23 24 24 23 28 34 38 42 44 43 40 42 44 45 46 56 57 43 34 32 23 17 23 29 36 46 59 68 74 82 90 88 91 100 97 88
19 25 30 37 21 12 20 28 31 30 25 22 27 32 36 41 40 38 36 39 40 43 45 53 51 41 33 24 17 29 37 44 51 63 72 80 84 88 92 91 89 89 88 82
17 9 10 27 16 24 36 38 38 33 23 19 25 30 34 36 34 32 31 36 37 39 45 48 44 39 35 21 26 44 55 66 73 81 85 96 101 99 91 88 84 80 75 74
26 22 20 30 29 31 27 24 20 16 15 19 23 27 30 31 30 29 24 30 35 37 42 40 37 36 32 26 33 54 68 79 88 101 101 99 96 94 89 74 68 64 63 63
22 25 38 33 27 16 23 23 21 16 14 18 22 26 28 28 24 22 21 27 31 33 36 34 32 33 29 32 46 63 76 86 92 90 87 90 89 87 81 78 74 70 64 63
35 32 32 26 22 25 26 22 19 18 18 20 21 23 26 23 20 16 18 21 25 30 30 29 33 33 32 42 59 81 87 84 82 77 73 76 77 77 75 71 68 64 60 55
18 15 17 25 28 24 18 17 18 18 20 23 22 22 23 18 16 13 15 20 24 26 25 26 34 35 42 58 79 86 78 65 69 65 55 51 51 50 48 47 46 46 43 40
19 25 18 5 3 6 9 13 16 19 23 24 23 22 20 16 11 11 12 15 20 21 22 24 33 39 52 63 67 67 58 47 47 41 41 40 40 41 42 42 42 39 38 39
10 9 8 5 7 12 15 17 19 21 23 23 22 20 16 14 13 9 6 8 14 18 20 24 29 35 44 59 56 50 33 33 35 37 37 37 39 40 41 43 45 46 44 46
19 15 11 10 14 16 19 21 21 22 23 20 19 18 19 19 11 12 7 1 9 15 19 23 31 37 46 50 44 42 32 32 31 34 39 42 42 42 44 45 44 42 39 38
15 11 11 15 20 19 21 20 22 23 19 18 17 17 18 13 14 14 10 8 6 12 20 25 33 45 46 43 35 30 28 30 34 33 36 38 39 40 41 42 40 39 37 37
7 7 11 16 19 17 17 18 22 21 19 16 17 18 21 16 19 17 19 17 15 15 20 25 30 49 54 43 38 28 29 31 33 34 34 38 40 39 38 37 38 37 36 35
2 8 14 18 18 18 15 17 18 20 21 19 19 18 18 19 22 22 19 20 23 22 24 26 30 51 49 37 36 30 31 32 33 34 35 36 37 38 38 37 37 36 35 34
10 12 12 18 19 15 9 13 18 21 24 22 21 20 20 19 25 32 32 24 26 26 26 30 37 55 46 40 39 33 28 31 32 33 33 34 36 37 37 37 36 36 34 33
15 14 14 20 16 14 21 23 25 25 25 23 24 23 28 24 28 29 24 24 29 29 30 34 43 61 47 38 30 32 32 31 32 32 35 37 36 36 37 36 36 35 37 38
15 14 15 19 17 19 21 25 26 22 22 24 20 16 18 22 28 36 29 34 33 33 33 35 47 65 51 36 33 31 35 38 37 34 35 37 38 37 37 37 37 36 35 35
16 17 19 21 20 21 24 29 30 19 22 19 15 10 16 22 29 34 33 39 37 33 34 41 54 64 43 36 37 36 38 44 39 34 35 36 37 38 38 42 41 37 39 40
20 21 21 26 21 18 22 27 18 16 22 15 14 8 14 27 41 38 43 47 40 34 43 51 58 59 52 51 46 46 43 35 36 36 36 38 42 44 44 44 45 45 43 41
Wind_Direction_500mb
256 269 261 261 264 254 255 251 269 294 308 312 339 340 321 331 333 333 334 336 334 332 330 328 326 324 325 324 330 331 328 328 322 313 311 310 308 294 269 257 244 243 232 222
263 251 246 262 251 253 266 257 265 273 275 350 335 327 332 332 330 328 332 331 330 329 327 327 325 326 327 332 334 335 331 326 325 322 322 318 320 297 263 254 237 223 218 211
272 238 259 259 254 247 240 239 270 289 330 317 330 335 333 325 330 336 330 327 328 329 328 326 328 326 330 335 335 333 332 335 334 331 330 323 304 253 213 204 205 204 201 199
274 253 253 57 103 223 268 289 283 303 311 326 330 333 313 341 344 330 324 325 327 329 330 329 330 332 336 339 338 340 342 342 342 339 331 313 298 211 193 173 154 149 152 160
242 239 266 264 218 251 247 293 321 303 319 321 328 317 310 357 340 332 327 325 326 331 331 330 331 339 339 340 342 345 347 348 344 344 332 335 112 120 126 132 133 138 131 137
240 257 258 297 127 328 287 268 67 338 324 323 324 317 345 337 338 334 329 330 332 335 336 335 338 342 345 345 347 350 350 351 345 351 356 109 120 123 131 139 132 132 130 133
230 244 273 86 93 247 247 21 339 335 330 326 322 324 321 332 336 332 330 333 336 342 339 339 341 347 352 349 355 351 353 352 357 25 68 106 123 124 123 127 128 124 125 127
231 239 255 108 191 258 358 329 328 320 315 319 319 322 328 335 337 334 334 338 343 343 343 344 349 352 357 356 352 355 13 29 46 69 90 113 120 117 116 119 120 121 120 117
231 46 114 75 354 311 321 317 325 318 319 317 321 331 334 339 340 336 337 339 345 345 349 351 355 1 5 357 356 358 45 61 89 101 108 114 116 116 116 116 117 117 113 110
281 229 267 255 274 264 300 317 319 317 316 322 331 336 341 344 342 338 340 343 346 350 354 353 0 8 15 6 12 58 81 96 104 111 113 115 117 115 116 107 107 112 111 110
268 270 274 269 272 232 293 307 308 305 305 319 331 339 344 345 341 340 341 346 350 356 358 358 4 16 21 19 52 90 96 104 109 113 114 114 113 114 114 112 111 110 110 110
257 323 288 291 270 288 304 307 303 296 288 312 334 340 344 342 338 338 343 350 355 3 4 5 14 27 31 47 97 106 107 106 109 112 113 111 110 107 105 106 105 105 106 106
263 267 268 288 287 287 303 314 320 304 300 321 336 343 344 337 333 344 347 355 4 5 8 15 28 41 55 87 106 114 111 110 109 112 110 110 109 108 105 99 96 95 99 101
251 271 275 280 268 280 303 304 295 292 304 328 337 343 343 338 337 341 355 360 8 10 18 29 46 59 82 106 116 116 116 114 112 111 112 112 110 109 109 105 99 97 97 101
258 263 267 266 277 283 297 294 289 286 305 326 338 343 345 342 344 349 359 7 13 21 35 50 68 79 102 117 123 122 116 115 115 112 112 112 113 111 105 101 100 101 104 99
248 223 263 272 289 294 286 285 292 298 308 321 328 335 338 335 349 350 2 10 25 37 50 72 91 100 118 126 126 121 119 115 115 109 98 101 103 102 99 99 101 100 97 93
249 268 285 255 313 319 315 312 312 311 313 317 318 319 323 315 332 342 338 18 36 59 68 94 108 116 126 125 124 119 110 106 99 99 103 105 109 108 106 105 103 102 100 109
236 153 116 71 8 336 321 312 308 305 303 307 314 317 314 302 294 286 306 15 54 79 84 107 119 126 134 134 130 115 97 106 107 104 106 108 106 104 104 104 103 102 100 95
122 107 79 37 360 336 322 313 308 302 304 301 308 311 309 305 256 251 251 110 98 104 115 119 125 127 138 142 134 113 106 110 111 110 108 103 105 106 107 107 105 103 100 96
105 72 39 8 350 337 325 316 311 308 307 298 296 306 312 300 233 234 201 172 140 138 134 133 140 139 141 146 143 112 110 114 112 111 111 110 109 111 112 110 107 104 102 99
104 37 1 350 345 337 325 323 319 312 305 298 292 301 299 263 242 220 191 182 176 161 144 145 149 152 147 150 132 120 123 122 116 114 113 110 106 107 107 107 105 104 102 100
318 327 337 337 341 335 330 334 330 317 304 302 295 297 304 242 227 206 186 202 181 172 157 151 147 155 155 143 135 131 124 124 121 120 118 117 115 115 114 112 110 106 103 100
299 297 307 322 319 314 321 333 330 316 309 292 288 283 287 247 228 205 196 192 179 177 167 157 147 154 156 140 141 130 133 129 123 123 122 119 119 120 119 117 113 109 105 102
282 276 287 310 298 288 303 310 319 314 308 296 284 269 271 234 209 206 204 191 180 170 162 162 156 161 158 136 140 136 137 133 128 125 126 123 124 122 117 116 114 113 110 103
283 265 291 309 290 295 306 317 314 313 307 302 291 274 232 210 213 190 191 181 174 167 166 165 161 161 160 141 141 142 145 145 132 127 128 125 125 125 123 120 118 115 111 107
283 270 293 298 283 289 304 313 317 309 298 308 298 266 225 202 187 183 180 173 170 166 165 160 161 157 146 144 140 141 150 141 126 132 128 126 129 129 129 127 122 119 117 113
294 274 285 305 287 292 303 308 302 290 285 285 283 249 212 190 182 177 170 165 163 152 153 151 153 155 150 145 149 147 137 131 135 133 134 135 136 135 137 133 128 124 118 116
Wind_Speed_850mb
23 20 20 22 25 24 26 28 27 27 30 30 25 29 39 45 50 54 55 60 64 67 70 72 73 68 68 66 77 75 72 70 66 65 57 54 58 49 47 45 46 47 45 50
23 23 26 32 30 32 28 28 25 24 29 18 33 38 42 50 50 53 60 64 67 67 67 69 66 66 71 77 75 72 70 66 62 54 49 51 53 29 23 22 29 36 49 59
22 4 16 24 32 32 19 21 19 21 27 23 27 35 42 45 44 59 57 61 62 61 62 64 62 64 71 70 70 67 63 60 57 49 43 38 26 14 19 26 34 47 56 56
14 10 25 5 7 2 14 21 18 21 20 23 31 36 45 33 52 56 59 57 55 58 63 59 58 67 66 65 65 62 60 57 52 43 34 18 9 9 16 19 27 36 42 46
13 18 25 21 22 13 11 18 16 13 17 30 38 42 27 48 54 53 51 47 48 53 57 57 58 65 63 63 60 57 57 50 48 34 21 3 12 23 33 38 31 32 40 39
15 17 13 6 9 3 9 22 10 12 23 34 43 25 25 54 53 52 47 42 49 53 54 53 66 64 61 57 56 53 51 34 36 21 9 10 27 38 43 42 45 45 49 51
21 16 15 13 2 5 18 8 18 24 30 35 24 34 45 49 51 51 43 44 47 50 51 51 61 63 56 52 53 46 33 26 23 16 15 19 31 41 47 52 55 59 64 65
19 19 18 6 9 17 17 23 28 33 32 31 32 37 42 47 49 49 44 47 49 50 49 53 61 59 50 47 43 33 20 18 18 20 24 28 38 50 57 63 70 75 78 76
9 4 10 7 7 13 13 20 24 26 26 27 30 34 40 44 48 45 42 44 46 47 46 54 60 49 43 42 34 23 20 20 28 31 41 47 55 67 79 83 90 94 96 91
8 12 10 6 15 10 10 16 23 24 24 23 28 34 38 42 44 43 40 42 44 45 46 56 57 43 34 32 23 17 23 29 36 46 59 68 74 82 90 88 91 100 97 88
19 25 30 37 21 12 20 28 31 30 25 22 27 32 36 41 40 38 36 39 40 43 45 53 51 41 33 24 17 29 37 44 51 63 72 80 84 88 92 91 89 89 88 82
17 9 10 27 16 24 36 38 38 33 23 19 25 30 34 36 34 32 31 36 37 39 45 48 44 39 35 21 26 44 55 66 73 81 85 96 101 99 91 88 84 80 75 74
26 22 20 30 29 31 27 24 20 16 15 19 23 27 30 31 30 29 24 30 35 37 42 40 37 36 32 26 33 54 68 79 88 101 101 99 96 94 89 74 68 64 63 63
22 25 38 33 27 16 23 23 21 16 14 18 22 26 28 28 24 22 21 27 31 33 36 34 32 33 29 32 46 63 76 86 92 90 87 90 89 87 81 78 74 70 64 63
35 32 32 26 22 25 26 22 19 18 18 20 21 23 26 23 20 16 18 21 25 30 30 29 33 33 32 42 59 81 87 84 82 77 73 76 77 77 75 71 68 64 60 55
18 15 17 25 28 24 18 17 18 18 20 23 22 22 23 18 16 13 15 20 24 26 25 26 34 35 42 58 79 86 78 65 69 65 55 51 51 50 48 47 46 46 43 40
19 25 18 5 3 6 9 13 16 19 23 24 23 22 20 16 11 11 12 15 20 21 22 24 33 39 52 63 67 67 58 47 47 41 41 40 40 41 42 42 42 39 38 39
10 9 8 5 7 12 15 17 19 21 23 23 22 20 16 14 13 9 6 8 14 18 20 24 29 35 44 59 56 50 33 33 35 37 37 37 39 40 41 43 45 46 44 46
19 15 11 10 14 16 19 21 21 22 23 20 19 18 19 19 11 12 7 1 9 15 19 23 31 37 46 50 44 42 32 32 31 34 39 42 42 42 44 45 44 42 39 38
15 11 11 15 20 19 21 20 22 23 19 18 17 17 18 13 14 14 10 8 6 12 20 25 33 45 46 43 35 30 28 30 34 33 36 38 39 40 41 42 40 39 37 37
7 7 11 16 19 17 17 18 22 21 19 16 17 18 21 16 19 17 19 17 15 15 20 25 30 49 54 43 38 28 29 31 33 34 34 38 40 39 38 37 38 37 36 35
2 8 14 18 18 18 15 17 18 20 21 19 19 18 18 19 22 22 19 20 23 22 24 26 30 51 49 37 36 30 31 32 33 34 35 36 37 38 38 37 37 36 35 34
10 12 12 18 19 15 9 13 18 21 24 22 21 20 20 19 25 32 32 24 26 26 26 30 37 55 46 40 39 33 28 31 32 33 33 34 36 37 37 37 36 36 34 33
15 14 14 20 16 14 21 23 25 25 25 23 24 23 28 24 28 29 24 24 29 29 30 34 43 61 47 38 30 32 32 31 32 32 35 37 36 36 37 36 36 35 37 38
15 14 15 19 17 19 21 25 26 22 22 24 20 16 18 22 28 36 29 34 33 33 33 35 47 65 51 36 33 31 35 38 37 34 35 37 38 37 37 37 37 36 35 35
16 17 19 21 20 21 24 29 30 19 22 19 15 10 16 22 29 34 33 39 37 33 34 41 54 64 43 36 37 36 38 44 39 34 35 36 37 38 38 42 41 37 39 40
20 21 21 26 21 18 22 27 18 16 22 15 14 8 14 27 41 38 43 47 40 34 43 51 58 59 52 51 46 46 43 35 36 36 36 38 42 44 44 44 45 45 43 41
Wind_Direction_850mb
256 269 261 261 264 254 255 251 269 294 308 312 339 340 321 331 333 333 334 336 334 332 330 328 326 324 325 324 330 331 328 328 322 313 311 310 308 294 269 257 244 243 232 222
263 251 246 262 251 253 266 257 265 273 275 350 335 327 332 332 330 328 332 331 330 329 327 327 325 326 327 332 334 335 331 326 325 322 322 318 320 297 263 254 237 223 218 211
272 238 259 259 254 247 240 239 270 289 330 317 330 335 333 325 330 336 330 327 328 329 328 326 328 326 330 335 335 333 332 335 334 331 330 323 304 253 213 204 205 204 201 199
274 253 253 57 103 223 268 289 283 303 311 326 330 333 313 341 344 330 324 325 327 329 330 329 330 332 336 339 338 340 342 342 342 339 331 313 298 211 193 173 154 149 152 160
242 239 266 264 218 251 247 293 321 303 319 321 328 317 310 357 340 332 327 325 326 331 331 330 331 339 339 340 342 345 347 348 344 344 332 335 112 120 126 132 133 138 131 137
240 257 258 297 127 328 287 268 67 338 324 323 324 317 345 337 338 334 329 330 332 335 336 335 338 342 345 345 347 350 350 351 345 351 356 109 120 123 131 139 132 132 130 133
230 244 273 86 93 247 247 21 339 335 330 326 322 324 321 332 336 332 330 333 336 342 339 339 341 347 352 349 355 351 353 352 357 25 68 106 123 124 123 127 128 124 125 127
231 239 255 108 191 258 358 329 328 320 315 319 319 322 328 335 337 334 334 338 343 343 343 344 349 352 357 356 352 355 13 29 46 69 90 113 120 117 116 119 120 121 120 117
231 46 114 75 354 311 321 317 325 318 319 317 321 331 334 339 340 336 337 339 345 345 349 351 355 1 5 357 356 358 45 61 89 101 108 114 116 116 116 116 117 117 113 110
281 229 267 255 274 264 300 317 319 317 316 322 331 336 341 344 342 338 340 343 346 350 354 353 0 8 15 6 12 58 81 96 104 111 113 115 117 115 116 107 107 112 111 110
268 270 274 269 272 232 293 307 308 305 305 319 331 339 344 345 341 340 341 346 350 356 358 358 4 16 21 19 52 90 96 104 109 113 114 114 113 114 114 112 111 110 110 110
257 323 288 291 270 288 304 307 303 296 288 312 334 340 344 342 338 338 343 350 355 3 4 5 14 27 31 47 97 106 107 106 109 112 113 111 110 107 105 106 105 105 106 106
263 267 268 288 287 287 303 314 320 304 300 321 336 343 344 337 333 344 347 355 4 5 8 15 28 41 55 87 106 114 111 110 109 112 110 110 109 108 105 99 96 95 99 101
251 271 275 280 268 280 303 304 295 292 304 328 337 343 343 338 337 341 355 360 8 10 18 29 46 59 82 106 116 116 116 114 112 111 112 112 110 109 109 105 99 97 97 101
258 263 267 266 277 283 297 294 289 286 305 326 338 343 345 342 344 349 359 7 13 21 35 50 68 79 102 117 123 122 116 115 115 112 112 112 113 111 105 101 100 101 104 99
248 223 263 272 289 294 286 285 292 298 308 321 328 335 338 335 349 350 2 10 25 37 50 72 91 100 118 126 126 121 119 115 115 109 98 101 103 102 99 99 101 100 97 93
249 268 285 255 313 319 315 312 312 311 313 317 318 319 323 315 332 342 338 18 36 59 68 94 108 116 126 125 124 119 110 106 99 99 103 105 109 108 106 105 103 102 100 109
236 153 116 71 8 336 321 312 308 305 303 307 314 317 314 302 294 286 306 15 54 79 84 107 119 126 134 134 130 115 97 106 107 104 106 108 106 104 104 104 103 102 100 95
122 107 79 37 360 336 322 313 308 302 304 301 308 311 309 305 256 251 251 110 98 104 115 119 125 127 138 142 134 113 106 110 111 110 108 103 105 106 107 107 105 103 100 96
105 72 39 8 350 337 325 316 311 308 307 298 296 306 312 300 233 234 201 172 140 138 134 133 140 139 141 146 143 112 110 114 112 111 111 110 109 111 112 110 107 104 102 99
104 37 1 350 345 337 325 323 319 312 305 298 292 301 299 263 242 220 191 182 176 161 144 145 149 152 147 150 132 120 123 122 116 114 113 110 106 107 107 107 105 104 102 100
318 327 337 337 341 335 330 334 330 317 304 302 295 297 304 242 227 206 186 202 181 172 157 151 147 155 155 143 135 131 124 124 121 120 118 117 115 115 114 112 110 106 103 100
299 297 307 322 319 314 321 333 330 316 309 292 288 283 287 247 228 205 196 192 179 177 167 157 147 154 156 140 141 130 133 129 123 123 122 119 119 120 119 117 113 109 105 102
282 276 287 310 298 288 303 310 319 314 308 296 284 269 271 234 209 206 204 191 180 170 162 162 156 161 158 136 140 136 137 133 128 125 126 123 124 122 117 116 114 113 110 103
283 265 291 309 290 295 306 317 314 313 307 302 291 274 232 210 213 190 191 181 174 167 166 165 161 161 160 141 141 142 145 145 132 127 128 125 125 125 123 120 118 115 111 107
283 270 293 298 283 289 304 313 317 309 298 308 298 266 225 202 187 183 180 173 170 166 165 160 161 157 146 144 140 141 150 141 126 132 128 126 129 129 129 127 122 119 117 113
294 274 285 305 287 292 303 308 302 290 285 285 283 249 212 190 182 177 170 165 163 152 153 151 153 155 150 145 149 147 137 131 135 133 134 135 136 135 137 133 128 124 118 116